Погода в Томторе

Россия / Республика Саха (Якутия)     67°12′11″N   132°08′16″E
темп.,
°C
ветер,
м/с
пор.,
м/с
влажн.,
%
обл.,
%
осадки,
мм/ч
давл.,
гПа
погр.,
м
1 марта, пн
пн101:00−36ююз119850 0.0 102419
04:00−34ююв119472 0.0 102419
07:00−34вюв1197100 0.0 102419
10:00−33св1196100 0.0 102365
13:00−31всв1190100 0.0 1022245
16:00−30св1191100 0.1 1022257
19:00−33св1299100 0.1 102319
22:00−32ссв2298100 0.1 102321
2 марта, вт
вт201:00−32ссв1298100 0.1 102325
04:00−33ссв2298100 0.1 102332
07:00−33ссв1298100 0.1 102434
10:00−32с2296100 0.1 1024127
13:00−31св2290100 0.1 1025283
16:00−30св1190100 0.1 1025267
19:00−36св1110033 0.0 102619
22:00−37с1110018 0.0 102719
3 марта, ср
ср301:00−38с1110036 0.0 102719
04:00−36сз119568 0.0 102619
07:00−35с1192100 0.0 102519
10:00−33ссз1191100 0.0 102355
13:00−31св1289100 0.0 1021298
16:00−30св2391100 0.1 1019367
19:00−32св1198100 0.1 102019
22:00−32ссв2299100 0.2 102035
4 марта, чт
чт401:00−33с2299100 0.2 101943
04:00−34ссз2298100 0.3 101947
07:00−35ссз2298100 0.1 102021
10:00−34ссз2494100 0.2 1021333
13:00−32с3585100 0.1 1021663
16:00−31с3688100 0.1 1021706
19:00−32ссв2298100 0.1 102323
22:00−32сз1198100 0.3 102419
5 марта, пт
пт501:00−31з1198100 0.1 102419
04:00−30з1198100 0.3 102519
07:00−29з1197100 0.1 102519
10:00−27з1196100 0.1 102578
13:00−24сз2382100 0.0 1024431
16:00−23с3576100 0.0 1024617
19:00−26ссз2284100 0.0 102519
22:00−27ссз2282100 0.0 102619